Weather History for Colorado City, AZ

Change the Weather History Date:

Monday, November 4, 2013

  Actual Average (KCDC) Record (KCDC)
Temperature  
Mean Temperature 40 °F 42 °F  
Max Temperature 49 °F 57 °F 75 °F (2009)
Min Temperature 28 °F 28 °F 5 °F (1994)
Degree Days  
Heating Degree Days 26 23  
Month to date heating degree days 88  
Since 1 July heating degree days 707  
Cooling Degree Days 0 0  
Month to date cooling degree days 0  
Year to date cooling degree days 588  
Moisture  
Dew Point 32 °F    
Average Humidity 75    
Maximum Humidity 97    
Minimum Humidity 39    
Precipitation  
Precipitation 0.04 in 0.04 in 0.26 in (2011)
Month to date precipitation 0.15  
Year to date precipitation 9.69  
Sea Level Pressure  
Sea Level Pressure 29.94 in    
Wind  
Wind Speed 4 mph (NNW)    
Max Wind Speed 13 mph    
Max Gust Speed 18 mph    
Visibility 10 miles    
Events Rain    
T = Trace of Precipitation, MM = Missing Value Source: NWS Daily Summary

Daily Weather History Graph

Daily Weather History Graph

Search for Another Location

Airport:

Trip Planner

Search our weather history database for the weather conditions in past years. The results will help you decide how hot, cold, wet, or windy it might be!

Date:

Astronomy

Nov. 04, 2013 Rise Set
Actual Time 6:59 AM MST 5:31 PM MST
Civil Twilight 6:32 AM MST 5:58 PM MST
Nautical Twilight 6:01 AM MST 6:29 PM MST
Astronomical Twilight 5:31 AM MST 6:59 PM MST
Moon 8:12 AM MST (11/4) 6:41 PM MST (11/4)
Length of Visible Light 11h 25m
Length of Day
10h 31m
New Moon, 2% of the Moon is Illuminated
Nov 4
New Moon
Nov 9
First Quarter
Nov 17
Full
Nov 25
Last Quarter
Dec 2
New

Hourly Weather History & Observations

Time (MST) Temp. Windchill Dew Point Humidity Pressure Visibility Wind Dir Wind Speed Gust Speed Precip Events Conditions
12:15 AM 32.9 °F - 30.0 °F 89% 29.92 in 10.0 mi Calm Calm - N/A   Clear
12:35 AM 32.4 °F 26.9 °F 30.4 °F 92% 29.92 in 10.0 mi East 5.8 mph - N/A   Clear
12:55 AM 33.1 °F 28.7 °F 30.4 °F 90% 29.92 in 10.0 mi SE 4.6 mph - N/A   Clear
1:15 AM 33.6 °F 30.6 °F 30.4 °F 88% 29.92 in 10.0 mi NE 3.5 mph - N/A   Clear
1:35 AM 33.3 °F - 30.0 °F 88% 29.92 in 10.0 mi Calm Calm - N/A   Clear
1:55 AM 32.0 °F 28.7 °F 29.5 °F 90% 29.90 in 10.0 mi SSE 3.5 mph - N/A   Clear
2:15 AM 30.9 °F - 28.9 °F 92% 29.90 in 10.0 mi Calm Calm - N/A   Clear
2:35 AM 32.7 °F 28.3 °F 30.4 °F 91% 29.90 in 10.0 mi East 4.6 mph - N/A   Clear
2:55 AM 36.0 °F - 31.1 °F 82% 29.89 in 10.0 mi Calm Calm - N/A   Clear
3:15 AM 38.1 °F 31.7 °F 30.9 °F 75% 29.89 in 10.0 mi North 9.2 mph - N/A   Clear
3:35 AM 38.7 °F 34.3 °F 30.6 °F 73% 29.90 in 10.0 mi NW 5.8 mph - N/A   Clear
3:55 AM 35.4 °F 31.5 °F 31.1 °F 84% 29.90 in 10.0 mi North 4.6 mph - N/A   Clear
4:15 AM 38.1 °F - 31.1 °F 76% 29.90 in 10.0 mi Calm Calm - N/A   Clear
4:35 AM 38.5 °F 36.1 °F 30.9 °F 74% 29.90 in 10.0 mi SW 3.5 mph - N/A   Clear
4:55 AM 37.9 °F 34.4 °F 30.6 °F 75% 29.90 in 10.0 mi North 4.6 mph - N/A   Clear
5:15 AM 39.6 °F 35.4 °F 30.9 °F 71% 29.90 in 10.0 mi SE 5.8 mph - N/A   Clear
5:35 AM 38.3 °F 34.8 °F 31.3 °F 76% 29.90 in 10.0 mi ENE 4.6 mph - N/A   Clear
5:55 AM 38.1 °F 33.7 °F 31.5 °F 77% 29.90 in 10.0 mi ESE 5.8 mph - N/A   Clear
6:15 AM 37.4 °F 34.9 °F 31.8 °F 80% 29.89 in 10.0 mi ESE 3.5 mph - N/A   Clear
6:35 AM 36.9 °F - 32.0 °F 83% 29.89 in 10.0 mi Calm Calm - N/A   Clear
6:55 AM 38.5 °F 34.1 °F 31.6 °F 76% 29.89 in 10.0 mi North 5.8 mph - N/A   Clear
7:15 AM 39.0 °F - 31.6 °F 75% 29.90 in 10.0 mi Calm Calm - N/A   Scattered Clouds
7:35 AM 41.0 °F 35.2 °F 29.7 °F 64% 29.90 in 10.0 mi NNE 9.2 mph 18.4 mph N/A   Scattered Clouds
7:55 AM 41.2 °F 36.0 °F 30.0 °F 65% 29.92 in 10.0 mi North 8.1 mph - N/A   Scattered Clouds
8:15 AM 41.9 °F 36.9 °F 30.0 °F 63% 29.92 in 10.0 mi NNE 8.1 mph - N/A   Mostly Cloudy
8:35 AM 42.8 °F 40.1 °F 29.7 °F 60% 29.92 in 10.0 mi NNW 4.6 mph - N/A   Mostly Cloudy
8:55 AM 42.3 °F 38.6 °F 31.3 °F 65% 29.93 in 10.0 mi NW 5.8 mph - N/A   Clear
9:15 AM 43.2 °F 39.7 °F 31.1 °F 62% 29.93 in 10.0 mi NNW 5.8 mph - N/A   Clear
9:35 AM 44.6 °F 42.2 °F 30.2 °F 57% 29.93 in 10.0 mi North 4.6 mph - N/A   Clear
9:55 AM 46.4 °F 44.3 °F 28.8 °F 50% 29.92 in 10.0 mi North 4.6 mph 16.1 mph N/A   Clear
10:15 AM 47.3 °F - 28.4 °F 48% 29.92 in 10.0 mi NNE 6.9 mph - N/A   Clear
10:35 AM 47.8 °F - 28.6 °F 47% 29.92 in 10.0 mi North 5.8 mph - N/A   Scattered Clouds
10:55 AM 48.6 °F - 27.7 °F 44% 29.92 in 10.0 mi NNW 4.6 mph - N/A   Mostly Cloudy
11:15 AM 48.0 °F - 29.5 °F 49% 29.92 in 10.0 mi NW 8.1 mph - N/A   Overcast
11:35 AM 48.0 °F - 29.3 °F 48% 29.93 in 10.0 mi NW 8.1 mph - N/A   Overcast
11:55 AM 49.1 °F - 28.4 °F 45% 29.93 in 10.0 mi NW 9.2 mph - N/A   Mostly Cloudy
12:15 PM 49.5 °F - 28.9 °F 45% 29.92 in 10.0 mi NW 9.2 mph - N/A   Mostly Cloudy
12:35 PM 49.6 °F - 28.6 °F 44% 29.92 in 10.0 mi WNW 11.5 mph - N/A   Overcast
12:55 PM 49.5 °F - 27.9 °F 43% 29.92 in 10.0 mi WNW 12.7 mph - N/A   Overcast
1:15 PM 48.9 °F - 27.1 °F 43% 29.92 in 10.0 mi WNW 10.4 mph - N/A   Overcast
1:35 PM 49.1 °F - 25.5 °F 40% 29.92 in 10.0 mi NW 12.7 mph - N/A   Overcast
1:55 PM 48.6 °F - 24.3 °F 39% 29.93 in 10.0 mi NW 10.4 mph - N/A   Overcast
2:15 PM 48.2 °F - 24.6 °F 40% 29.93 in 10.0 mi NW 10.4 mph - N/A   Overcast
2:35 PM 47.8 °F - 25.7 °F 42% 29.93 in 10.0 mi NNW 9.2 mph - N/A   Overcast
2:55 PM 46.8 °F - 29.5 °F 51% 29.94 in 10.0 mi NNW 11.5 mph - N/A   Light Drizzle
3:15 PM 44.1 °F 39.5 °F 33.8 °F 67% 29.94 in 7.0 mi NW 8.1 mph 17.3 mph N/A Rain Light Rain
3:35 PM 41.9 °F 37.5 °F 37.0 °F 83% 29.95 in 5.0 mi NNW 6.9 mph - N/A   Overcast
3:55 PM 41.0 °F 36.4 °F 38.5 °F 91% 29.95 in 5.0 mi NNW 6.9 mph - 0.01 in   Overcast
4:15 PM 41.0 °F 36.4 °F 38.7 °F 91% 29.96 in 7.0 mi NNW 6.9 mph - N/A   Overcast
4:35 PM 40.6 °F 36.7 °F 38.3 °F 91% 29.96 in 7.0 mi NNW 5.8 mph - 0.02 in   Unknown
4:55 PM 40.5 °F 38.4 °F 38.1 °F 91% 29.95 in 7.0 mi NNE 3.5 mph - 0.03 in   Overcast
5:15 PM 40.6 °F 38.6 °F 39.0 °F 94% 29.96 in 10.0 mi WNW 3.5 mph - N/A   Overcast
5:35 PM 40.6 °F - 38.8 °F 93% 29.96 in 10.0 mi Calm Calm - N/A   Overcast
5:55 PM 40.6 °F - 38.5 °F 92% 29.96 in 10.0 mi Calm Calm - N/A   Overcast
6:15 PM 39.9 °F - 39.2 °F 97% 29.96 in 10.0 mi Calm Calm - N/A   Overcast
6:35 PM 40.1 °F - 39.0 °F 96% 29.96 in 10.0 mi Calm Calm - N/A   Overcast
6:55 PM 39.6 °F 36.3 °F 37.9 °F 94% 29.96 in 10.0 mi NNW 4.6 mph - N/A   Mostly Cloudy
7:15 PM 38.7 °F 34.3 °F 37.4 °F 95% 29.97 in 10.0 mi NNW 5.8 mph - N/A   Mostly Cloudy
7:35 PM 37.9 °F 32.7 °F 35.8 °F 92% 29.98 in 10.0 mi NW 6.9 mph - N/A   Overcast
7:55 PM 36.5 °F 33.9 °F 34.0 °F 91% 29.98 in 10.0 mi WNW 3.5 mph - N/A   Scattered Clouds
8:15 PM 35.4 °F - 33.3 °F 92% 29.99 in 10.0 mi Calm Calm - N/A   Clear
8:35 PM 35.4 °F 30.5 °F 33.1 °F 91% 29.99 in 10.0 mi NW 5.8 mph - N/A   Clear
8:55 PM 36.5 °F 30.3 °F 32.9 °F 87% 29.99 in 10.0 mi WNW 8.1 mph - N/A   Clear
9:15 PM 36.0 °F 32.1 °F 31.6 °F 84% 30.00 in 10.0 mi WNW 4.6 mph - N/A   Clear
9:35 PM 34.9 °F 29.0 °F 31.5 °F 87% 30.00 in 10.0 mi WNW 6.9 mph - N/A   Clear
9:55 PM 34.9 °F 27.7 °F 31.5 °F 87% 30.00 in 10.0 mi WNW 9.2 mph - N/A   Clear
10:15 PM 34.5 °F 29.4 °F 31.6 °F 89% 30.01 in 10.0 mi NW 5.8 mph - N/A   Clear
10:35 PM 33.3 °F 30.2 °F 30.7 °F 90% 30.01 in 10.0 mi NNE 3.5 mph - N/A   Clear
10:55 PM 32.5 °F - 30.4 °F 92% 30.02 in 10.0 mi Calm Calm - N/A   Clear
11:15 PM 32.7 °F - 30.7 °F 92% 30.02 in 10.0 mi Calm Calm - N/A   Clear
11:35 PM 31.5 °F - 29.8 °F 94% 30.03 in 10.0 mi Calm Calm - N/A   Clear
11:55 PM 28.9 °F - 27.9 °F 96% 30.04 in 10.0 mi Calm Calm - N/A   Clear